This is the latest recevied weather packets stored in our database for station/object SP4MAZ-13. If no packets are shown the sender has not sent any weather packets the latest 10 day(s).
| Time | Temp. | Humidity | Pressure | Rain* | Wind** | Luminosity | Snow |
|---|---|---|---|---|---|---|---|
| 1777240586 | 0° C | 77% | 2147.4 hPa | - | - | - | - |
| 1777240282 | 0° C | 75% | 2147.4 hPa | - | - | - | - |
| 1777239979 | 0° C | 75% | 2147.4 hPa | - | - | - | - |
| 1777239678 | 0.56° C | 79% | 2147.4 hPa | - | - | - | - |
| 1777239374 | 0.56° C | 75% | 2147.4 hPa | - | - | - | - |
| 1777239072 | 1.11° C | 74% | 2147.4 hPa | - | - | - | - |
| 1777238768 | 1.11° C | 75% | 2147.4 hPa | - | - | - | - |
| 1777238464 | 1.11° C | 73% | 2147.4 hPa | - | - | - | - |
| 1777238161 | 1.11° C | 76% | 2147.4 hPa | - | - | - | - |
| 1777237857 | 1.11° C | 74% | 2147.4 hPa | - | - | - | - |
| 1777237554 | 1.11° C | 73% | 2147.4 hPa | - | - | - | - |
| 1777237251 | 1.67° C | 73% | 2147.4 hPa | - | - | - | - |
| 1777236948 | 2.22° C | 71% | 2147.4 hPa | - | - | - | - |
| 1777236644 | 2.22° C | 72% | 2147.4 hPa | - | - | - | - |
| 1777236340 | 2.22° C | 69% | 2147.4 hPa | - | - | - | - |
| 1777236037 | 2.22° C | 71% | 2147.4 hPa | - | - | - | - |
| 1777235734 | 2.22° C | 72% | 2147.4 hPa | - | - | - | - |
| 1777235430 | 2.22° C | 70% | 2147.4 hPa | - | - | - | - |
| 1777235126 | 2.78° C | 67% | 2147.4 hPa | - | - | - | - |
| 1777234823 | 2.78° C | 68% | 2147.4 hPa | - | - | - | - |
| 1777234519 | 2.78° C | 67% | 2147.4 hPa | - | - | - | - |
| 1777234217 | 2.78° C | 67% | 2147.4 hPa | - | - | - | - |
| 1777233913 | 2.78° C | 65% | 2147.4 hPa | - | - | - | - |
| 1777233610 | 2.78° C | 62% | 2147.4 hPa | - | - | - | - |
| 1777233306 | 3.33° C | 66% | 2147.4 hPa | - | - | - | - |
* Rain since midnight (hover to see other rain measurements)
** Current wind speed in m/s (hover to see current wind gust speed)